Wind_Speed
7 7 7 6 4 6 8 9 11 11 10 11 12 13 12 11 12 13 14 15 15 15 15 15 16 15 14 14 12 12 13 14 16 15 15 13 12 12 12 11 11 11 10 10 9 9 10 10 11 11 11 12 12 12 12 11 12 13 13 13 12 11 12 12 11 12 12 12 13 13 13 13 13 13 12 12 12 11 11 12 12 13 13 13 12
6 7 7 6 5 7 8 9 11 12 12 12 13 13 12 11 11 13 14 14 14 14 14 14 15 15 14 14 13 14 14 15 15 14 14 12 12 12 12 11 11 10 9 9 9 10 10 10 12 12 11 12 12 12 12 12 13 15 14 14 13 12 12 12 12 12 12 12 12 13 13 12 12 13 12 11 11 11 11 12 12 12 12 12 12
6 7 7 6 6 7 9 11 11 12 13 13 13 14 13 12 11 12 13 14 13 13 13 13 13 13 13 13 12 12 12 12 14 13 13 12 11 11 11 11 10 10 9 9 9 10 10 11 11 11 12 12 12 12 12 13 15 16 16 15 16 15 13 12 11 11 11 12 12 13 12 11 11 12 12 10 10 11 11 12 12 13 13 12 12
7 7 7 7 7 8 8 11 12 13 13 13 13 14 14 12 12 13 12 13 13 12 12 12 12 12 12 12 11 10 10 11 14 14 13 11 11 10 11 11 10 10 9 10 9 10 11 11 11 10 12 13 13 14 14 16 16 16 15 15 16 15 12 11 10 10 10 10 11 11 10 11 11 11 11 10 11 11 11 11 12 12 12 12 12
7 6 6 8 9 8 8 10 12 13 13 13 14 15 14 13 14 13 12 13 12 12 12 12 12 13 12 11 12 11 11 13 15 14 13 12 11 11 11 10 10 10 10 10 10 10 12 12 12 10 11 13 14 15 17 17 16 16 15 14 13 12 11 11 10 9 9 9 8 8 9 10 10 10 10 11 11 11 11 11 11 11 11 12 12
6 6 7 9 9 8 9 11 13 13 12 12 13 14 14 14 14 14 13 13 13 13 13 13 13 13 12 12 12 11 11 13 14 14 13 12 11 11 11 10 10 11 11 10 10 11 12 12 12 11 10 12 13 15 17 17 16 16 15 14 13 11 11 10 10 7 6 6 5 5 7 8 9 9 10 11 11 11 11 11 11 11 11 11 12
5 6 7 9 9 9 10 12 13 13 12 12 12 12 13 14 14 14 13 13 14 13 13 14 14 13 12 11 12 12 12 12 12 13 12 11 10 10 9 10 11 12 12 11 11 11 11 12 12 11 11 11 11 12 15 16 15 15 13 13 13 11 10 9 8 6 4 4 4 5 6 8 10 10 10 11 10 10 10 10 10 10 11 12 12
5 6 7 9 8 9 9 10 13 12 12 12 12 12 12 14 14 14 13 14 14 13 12 14 15 14 12 12 13 14 12 12 11 12 11 10 11 10 8 9 11 12 12 11 10 10 11 11 11 11 11 11 11 10 11 12 13 13 11 10 10 8 7 7 6 5 4 4 5 6 8 10 11 10 9 9 9 9 9 10 10 10 11 11 12
6 7 7 7 6 7 9 8 10 10 11 11 11 12 12 13 13 14 14 13 14 13 12 13 16 15 13 11 12 12 11 11 11 10 9 9 10 9 8 9 10 12 11 10 8 9 10 10 9 10 11 11 10 10 10 10 10 10 8 7 5 4 4 4 4 4 4 4 5 6 8 9 9 8 8 8 9 9 9 9 9 9 9 10 11
7 7 6 6 5 7 10 9 7 8 9 10 10 11 12 13 13 13 14 14 13 12 11 12 14 15 14 11 11 10 9 10 10 8 8 9 10 9 9 9 9 10 11 9 7 7 8 8 8 8 10 11 10 10 9 9 9 7 6 4 3 2 1 0 1 3 3 4 5 6 7 8 8 7 7 8 8 9 9 8 7 8 9 9 9
7 7 7 6 7 8 11 10 7 7 7 8 9 9 10 12 13 13 13 13 13 11 11 12 12 14 15 13 11 10 9 10 9 9 9 9 9 9 9 8 8 9 10 9 8 7 6 7 7 8 9 10 9 9 8 8 7 6 4 3 3 3 2 2 2 1 3 4 4 5 7 7 8 8 7 7 8 9 8 7 7 7 9 10 9
7 8 7 7 10 9 11 11 9 7 7 8 9 9 8 9 11 12 12 11 12 11 10 11 12 13 13 13 12 10 9 9 9 10 10 9 8 8 8 7 7 7 7 7 7 7 5 5 6 7 8 8 7 7 7 6 6 5 4 4 4 3 3 3 3 2 4 4 4 5 7 8 8 7 7 7 8 8 6 7 8 8 9 10 9
8 7 7 8 11 8 9 11 10 8 8 8 9 10 9 6 7 10 12 11 11 11 10 11 12 12 12 11 11 10 9 10 10 10 9 8 7 7 6 5 4 4 5 5 6 7 6 5 5 5 6 6 6 6 6 5 5 5 5 4 4 2 3 3 3 2 4 4 4 4 5 7 7 7 7 8 8 6 6 7 8 8 9 9 9
8 7 8 9 11 9 7 10 11 9 9 9 9 10 10 6 5 8 11 11 11 11 12 12 12 12 12 10 10 10 10 10 9 9 8 7 6 5 5 4 4 4 5 5 6 7 7 7 6 6 6 6 6 6 5 5 5 5 6 5 5 2 3 4 4 3 3 4 3 2 3 6 7 7 6 8 7 5 6 8 8 8 8 8 8
7 7 8 9 12 11 7 8 11 11 10 9 9 9 10 9 6 7 10 11 11 12 13 13 12 12 11 10 9 10 10 9 8 8 7 5 5 5 5 4 4 5 5 6 6 7 8 7 7 6 6 6 6 5 5 5 4 5 6 6 8 5 1 4 4 3 3 3 3 2 2 4 6 6 6 7 6 4 6 7 7 7 8 9 8
7 7 8 9 12 12 9 8 9 10 9 9 9 9 10 10 7 6 9 10 11 12 13 13 13 12 11 10 9 8 9 9 8 7 6 5 4 4 5 5 5 5 6 6 6 7 7 7 6 6 5 4 4 4 3 3 3 5 6 7 8 7 3 2 4 4 4 4 4 3 2 4 6 5 5 6 5 5 5 5 6 6 8 8 8
6 6 6 8 10 12 12 9 8 8 9 9 9 9 9 9 8 6 9 11 11 11 12 13 13 12 11 10 9 7 7 8 7 6 6 4 4 4 4 4 5 5 5 6 6 6 6 6 6 5 4 3 3 3 2 2 2 4 5 7 8 9 6 2 3 4 5 5 5 4 3 4 5 5 5 5 5 5 4 4 5 6 6 7 7
5 5 6 7 8 10 13 12 9 8 8 8 8 8 8 10 9 7 9 10 10 10 11 12 12 12 11 10 10 8 7 7 6 5 4 3 2 3 3 3 3 4 5 5 5 5 6 5 5 4 3 3 2 2 2 1 2 3 3 5 8 8 8 5 1 4 5 6 6 5 4 4 4 4 6 4 4 5 4 5 6 5 5 6 6
5 5 5 5 6 8 10 13 13 11 10 9 8 7 8 10 10 8 8 8 8 9 10 11 10 10 10 9 9 9 8 8 7 6 5 5 4 4 3 2 2 2 3 4 4 4 4 5 5 5 4 3 2 1 2 1 2 3 3 5 7 7 7 7 3 3 5 6 6 6 5 4 4 4 5 4 4 4 4 6 5 4 5 5 5
3 3 3 4 5 6 8 10 12 13 12 10 9 8 8 7 8 7 7 6 6 7 10 9 7 8 8 7 7 8 7 7 7 7 6 6 6 6 5 4 2 2 2 2 2 2 2 3 4 4 4 3 2 1 1 2 2 4 4 5 8 8 7 8 7 5 5 6 6 6 5 5 4 3 3 4 4 4 5 6 5 5 5 5 5
3 2 3 4 4 6 6 7 8 10 10 9 8 7 7 7 7 6 6 5 5 6 9 8 6 6 6 6 6 6 6 6 6 6 5 5 5 5 5 5 4 2 2 2 2 1 2 2 2 2 2 3 3 2 1 1 2 4 5 6 8 8 8 8 10 9 4 5 6 6 6 6 5 2 2 4 4 5 6 6 6 5 5 5 6
5 3 4 5 5 5 5 5 6 7 7 6 6 5 5 6 6 5 5 5 4 4 6 7 6 5 5 5 5 5 6 6 5 5 5 5 4 4 4 4 4 3 2 2 3 3 3 4 4 3 2 2 3 2 1 0 1 3 5 6 8 8 8 7 9 9 6 3 4 5 6 7 5 3 2 4 5 6 6 5 5 6 6 6 6
7 5 5 5 4 4 3 3 5 6 6 5 4 4 4 4 4 4 4 5 5 5 6 6 5 5 3 4 5 5 6 6 5 5 5 5 5 4 4 4 4 3 3 3 3 3 3 4 5 5 4 3 3 3 2 2 2 3 5 7 8 8 7 6 6 8 7 5 3 4 6 7 6 4 3 5 6 8 7 6 6 6 6 6 6
8 7 6 4 3 3 4 4 6 7 6 5 5 4 4 4 4 4 5 5 6 7 7 6 6 5 4 4 5 6 6 7 6 5 6 6 6 5 4 4 4 4 3 3 3 3 3 3 4 4 5 4 3 3 3 2 2 4 6 7 8 8 7 6 5 6 7 7 4 3 5 6 6 5 4 6 7 8 8 7 7 6 8 7 7
8 7 5 4 3 4 5 6 6 6 5 5 5 5 5 5 5 5 5 6 7 7 7 7 7 6 6 6 6 7 8 8 7 6 7 7 6 6 5 5 5 4 4 4 3 4 4 4 3 3 4 4 3 3 3 2 3 5 7 8 8 8 7 6 6 7 7 7 5 4 5 6 7 6 5 7 9 9 9 8 7 7 9 9 7
8 7 6 5 4 5 6 5 4 4 4 4 5 5 5 5 6 6 6 7 8 8 8 7 8 8 7 7 9 9 9 8 7 7 7 7 7 6 6 6 6 5 4 4 4 4 4 4 3 3 3 3 3 3 3 4 5 6 8 8 8 8 7 7 8 8 8 8 6 5 6 6 7 6 6 8 9 10 10 9 8 8 9 10 9
9 8 7 5 5 5 4 4 3 3 4 5 5 5 5 5 6 5 6 7 8 7 8 8 9 11 9 8 10 11 9 8 8 8 8 8 7 6 6 6 5 5 5 5 5 4 4 4 3 3 3 3 3 3 3 5 6 8 8 7 7 8 8 8 9 9 9 9 7 5 6 7 7 7 6 6 7 8 10 10 9 9 10 10 10
10 9 6 5 4 4 3 2 3 5 6 7 6 6 6 6 6 6 7 8 9 8 9 10 11 12 11 9 10 10 10 9 9 9 9 8 8 7 6 5 5 5 5 5 5 5 5 4 4 4 3 3 3 2 3 4 6 6 7 6 7 7 7 8 8 9 10 10 9 7 7 8 8 8 6 6 6 6 8 10 10 10 10 10 10
9 8 6 5 4 3 2 2 4 6 7 8 7 7 6 6 7 8 9 9 9 9 10 11 11 11 11 10 10 10 10 10 10 10 9 8 8 8 6 5 4 4 4 4 4 5 5 5 5 5 5 4 3 2 3 4 5 6 7 7 7 6 6 7 7 8 9 10 10 8 8 9 9 8 6 5 6 7 7 8 10 10 10 10 10
7 7 6 4 3 2 1 2 5 7 8 8 8 7 7 7 8 9 9 8 9 9 9 9 9 9 10 10 10 10 11 10 10 9 8 8 8 8 7 7 5 5 3 2 2 4 5 5 6 6 6 6 5 4 4 4 5 6 7 8 7 7 6 7 8 8 9 10 9 8 8 8 8 7 6 6 6 7 9 10 10 9 10 11 11
6 5 5 3 2 2 1 3 6 7 8 8 9 8 8 8 8 9 9 8 8 7 7 8 8 9 9 10 10 10 10 10 9 9 9 9 8 8 8 7 6 6 4 3 2 2 3 4 5 5 5 5 6 7 6 5 4 5 6 6 6 7 7 7 7 9 9 9 9 9 8 7 8 7 7 7 6 5 7 10 10 10 11 12 12
4 4 4 2 2 2 2 4 7 8 9 10 10 10 10 10 10 10 10 8 8 7 9 11 11 11 10 9 9 9 9 10 10 10 10 10 9 8 7 6 6 5 4 3 3 1 1 2 3 3 3 4 5 6 6 5 5 6 6 5 5 5 6 6 7 8 8 8 8 8 7 7 8 7 7 7 7 6 7 9 10 11 12 13 13
4 5 4 4 4 4 4 6 7 8 10 11 11 11 11 11 12 13 12 11 10 11 13 14 13 12 11 10 9 9 9 9 9 10 10 9 9 7 6 5 5 4 4 2 2 2 1 1 2 2 3 4 4 5 5 4 4 5 5 5 5 5 5 5 5 5 6 7 6 6 6 6 7 7 7 7 7 7 7 9 10 12 12 13 13
5 7 7 7 7 7 7 7 8 8 10 11 10 11 11 12 13 14 13 12 13 14 14 13 13 12 11 10 10 9 9 8 8 8 8 9 8 6 5 5 5 5 4 3 2 1 2 2 2 2 3 3 3 3 3 3 3 4 3 4 4 4 4 4 4 3 4 5 5 5 5 5 5 5 6 6 6 6 7 8 9 10 11 12 13
8 9 10 10 10 9 8 7 7 8 9 10 9 10 11 12 13 13 13 12 12 13 12 12 11 11 10 10 10 10 9 9 8 8 9 10 10 7 6 6 6 6 5 4 3 2 2 2 1 1 2 2 3 3 3 2 2 2 2 2 3 3 3 3 2 2 3 3 3 4 4 4 4 4 4 5 5 5 6 7 8 9 11 12 13
10 11 11 12 11 10 8 7 7 7 8 8 8 10 10 11 11 11 12 11 11 11 11 11 10 10 10 11 11 11 10 10 10 9 9 11 11 10 9 7 6 5 5 4 3 3 3 3 2 2 2 3 3 3 3 2 2 3 3 3 4 4 4 4 3 2 3 2 1 3 4 3 2 2 2 2 3 3 4 6 7 7 9 10 11
9 10 10 10 10 9 8 7 6 5 5 6 6 7 9 9 10 10 10 10 11 11 11 11 11 11 11 12 13 12 11 11 11 11 10 10 10 11 10 8 7 5 4 4 3 3 2 2 3 3 4 4 4 4 4 4 4 4 4 4 5 5 4 4 3 3 3 1 1 3 2 1 1 1 1 1 1 1 2 4 5 6 7 9 10
8 8 8 9 9 9 8 6 5 4 4 4 3 5 6 7 8 8 8 9 11 11 11 12 12 12 13 14 14 14 13 12 12 11 9 9 9 10 9 9 8 6 5 5 4 3 3 3 4 4 5 5 5 5 5 5 4 4 4 3 3 2 2 1 1 2 2 2 3 3 3 3 4 4 4 3 3 3 3 3 4 6 6 6 7
7 7 7 8 8 8 7 6 5 4 4 4 3 3 4 6 6 6 7 9 10 10 10 11 12 13 14 15 14 14 13 12 12 11 10 10 10 10 9 9 9 8 6 5 4 4 4 4 4 5 5 5 6 6 5 3 4 6 5 5 5 5 5 4 4 5 5 5 5 5 5 5 5 5 4 3 2 1 1 2 3 4 5 6 7
5 7 7 7 7 7 6 6 5 4 4 4 3 3 3 4 5 5 5 7 8 8 9 10 11 13 14 14 13 13 13 12 12 12 11 11 11 11 10 10 9 9 8 7 6 5 4 4 4 4 5 5 5 5 5 2 7 10 10 10 10 10 10 9 9 9 8 7 7 6 7 7 7 6 5 4 4 4 5 5 5 6 7 9 10
5 6 7 6 6 6 6 5 5 5 4 3 3 2 2 2 2 3 3 4 6 6 7 9 10 12 13 13 13 13 14 13 13 13 13 13 13 12 12 12 11 10 9 9 8 7 6 5 4 4 4 5 5 5 5 2 5 10 11 13 14 14 14 13 13 12 10 9 8 8 8 8 8 8 7 7 7 7 7 7 8 9 11 13 13
4 5 6 5 5 5 5 5 5 5 5 5 4 3 2 1 1 1 2 3 4 5 5 7 8 9 11 11 11 12 13 14 14 14 14 14 14 14 14 14 14 12 11 9 8 8 7 6 5 5 5 5 6 7 6 5 1 5 6 7 10 13 15 16 17 15 12 10 10 10 10 10 11 11 9 9 10 11 11 12 12 13 13 14 15
4 4 4 4 4 4 4 4 4 5 5 5 5 4 3 2 1 1 2 3 2 3 5 6 6 7 8 8 8 9 11 12 13 13 13 14 14 14 14 14 14 14 13 12 11 10 8 7 6 6 6 6 7 7 7 6 2 2 4 2 2 4 7 11 15 15 13 12 12 12 11 12 11 10 9 11 12 13 13 14 14 15 15 15 14
6 5 5 4 4 4 4 3 2 3 4 5 5 4 2 1 1 2 4 3 2 3 4 4 4 5 6 6 6 8 9 11 13 13 13 13 13 13 13 12 12 13 13 13 13 12 11 9 8 7 7 7 6 6 7 6 3 1 2 2 1 1 1 3 7 12 12 12 13 13 13 12 12 13 13 15 15 14 13 12 12 12 14 15 16
9 8 7 5 5 4 4 3 2 2 3 3 3 3 2 1 1 4 5 4 4 3 2 2 3 4 5 5 6 7 9 11 12 12 12 12 12 12 11 11 11 11 11 12 12 12 11 11 10 9 9 9 7 6 6 6 5 2 2 1 1 1 0 1 2 7 9 11 13 14 16 16 17 18 19 18 17 15 14 13 13 12 11 13 13
12 11 9 7 6 5 4 2 2 1 1 2 2 2 2 2 1 3 4 4 4 3 2 3 2 3 3 4 4 6 8 10 12 12 12 12 12 11 10 10 11 11 11 11 10 10 10 11 11 10 10 9 9 8 7 7 5 4 3 2 1 1 3 4 1 2 6 9 11 13 16 19 20 21 21 20 19 18 17 15 14 12 11 11 12
13 12 10 9 8 7 6 5 3 1 2 2 3 3 3 2 2 2 2 2 2 2 3 3 2 2 3 2 3 4 7 9 11 12 12 12 12 11 10 10 10 10 10 11 11 11 10 10 10 10 10 9 9 9 8 8 6 4 5 3 3 2 7 6 3 3 3 5 9 12 15 18 21 22 22 21 21 20 20 18 16 14 13 14 16
14 13 13 12 11 9 8 7 4 3 3 3 3 4 4 4 3 2 2 1 1 1 3 3 2 3 3 2 2 3 6 8 10 11 11 11 11 10 10 10 9 10 10 11 11 11 11 10 10 10 10 10 10 9 8 8 7 6 5 4 4 1 7 5 4 7 5 3 5 9 15 20 22 22 22 21 21 21 21 21 20 17 16 16 16
16 15 15 15 13 10 8 7 6 5 5 4 4 5 5 4 3 2 2 2 1 1 2 2 2 2 2 1 2 3 5 8 10 11 10 10 10 9 9 8 8 8 9 9 9 10 10 10 10 10 10 10 10 10 9 8 7 6 5 4 4 2 1 1 2 4 4 4 4 5 10 16 18 20 21 21 21 22 22 23 22 20 18 17 17
18 17 17 16 14 11 10 9 7 7 6 5 5 6 6 5 3 2 2 2 2 2 3 3 3 3 3 2 2 2 3 6 9 9 9 9 9 9 8 8 7 7 7 7 8 9 9 10 10 9 9 9 9 9 8 8 7 6 6 5 4 4 1 0 1 3 5 3 4 5 8 10 11 13 18 21 21 20 21 21 21 20 18 17 16
19 18 17 16 14 13 13 12 9 8 8 7 6 7 7 5 4 4 3 3 3 4 5 6 6 5 5 4 3 3 3 5 6 7 8 8 8 8 8 7 7 7 6 7 8 9 9 9 9 9 9 9 8 8 7 7 7 7 6 6 6 4 3 2 5 6 5 4 5 4 6 12 13 12 15 19 21 20 19 19 19 19 18 17 16
Wind_Direction
107 103 103 104 113 125 127 127 123 125 121 114 107 100 101 107 113 113 112 110 109 109 110 110 110 114 118 120 121 121 122 122 122 120 114 111 111 110 110 109 107 107 108 106 106 108 107 106 102 103 110 115 116 117 119 120 126 126 123 126 124 121 123 122 122 120 116 114 113 110 106 104 103 101 100 100 101 101 103 107 107 104 101 99 101
104 106 104 109 118 128 130 126 127 130 124 119 115 109 112 119 120 117 114 112 110 109 110 109 109 111 113 115 115 117 121 120 117 115 111 110 108 106 106 106 107 110 109 106 108 109 107 105 102 104 109 116 118 119 121 122 126 126 122 122 118 113 112 111 112 112 111 110 107 102 98 97 98 101 102 102 102 102 102 105 103 99 97 98 99
110 110 102 113 121 132 136 133 135 133 127 126 127 122 122 128 124 117 113 111 110 110 110 110 111 113 114 115 114 116 122 121 117 112 109 108 108 107 107 109 110 110 108 107 108 109 108 104 105 110 109 110 114 118 124 124 122 116 113 110 106 103 100 97 102 103 103 103 103 101 98 97 98 102 103 102 102 102 102 102 100 99 102 103 100
118 117 114 121 125 140 142 137 137 131 131 133 132 126 124 127 124 114 110 111 112 112 114 115 116 117 116 118 116 117 123 122 118 114 113 115 113 108 108 110 109 107 108 107 108 112 110 108 113 115 109 105 109 114 115 112 108 105 105 106 105 105 100 97 97 96 99 103 109 110 104 99 100 101 101 104 104 103 104 103 101 101 104 104 103
126 125 131 130 131 147 145 138 136 134 136 138 133 128 129 129 123 116 113 113 112 113 116 117 117 117 115 114 113 114 118 118 117 118 121 116 110 107 107 107 104 104 107 108 111 115 111 112 118 114 108 109 111 111 106 100 101 103 104 105 105 103 96 96 95 97 107 112 118 114 105 104 103 100 104 112 112 111 110 107 104 103 104 105 105
133 137 144 136 137 146 145 142 140 139 138 134 130 130 134 133 127 122 119 115 111 112 115 116 114 113 112 111 115 116 115 116 118 121 119 114 114 115 113 109 105 103 103 108 114 116 112 112 118 115 108 113 114 112 111 107 104 102 102 104 104 101 95 94 94 100 119 124 123 114 111 112 108 110 119 122 119 118 115 111 111 109 107 106 106
137 150 151 142 142 145 147 143 137 136 134 132 133 133 135 134 131 128 124 120 114 113 117 119 118 116 114 115 122 123 119 119 120 119 118 122 124 118 110 108 105 102 101 109 116 116 115 115 121 123 116 115 112 110 113 116 113 107 105 106 106 105 104 105 100 101 126 139 135 127 122 118 118 124 128 123 121 119 115 115 114 113 112 110 107
147 161 157 146 146 148 144 136 130 129 133 134 135 134 135 137 135 130 125 122 117 116 122 124 123 121 117 118 123 125 124 125 125 122 124 123 117 114 108 102 103 102 100 107 117 120 121 123 126 124 120 118 115 109 107 114 120 118 111 107 104 101 103 108 108 111 129 140 138 133 127 126 130 135 129 122 122 116 109 111 112 110 111 112 109
156 164 157 146 144 139 120 108 116 122 130 131 132 135 137 140 138 130 123 120 117 116 124 130 127 122 117 120 125 125 125 128 130 124 122 116 113 116 105 92 95 99 98 102 114 119 122 127 125 118 119 119 116 109 100 102 109 110 104 98 92 85 88 94 108 123 134 140 137 133 132 135 137 137 129 121 119 114 111 116 117 111 108 110 109
158 160 149 133 119 116 108 103 114 119 126 126 131 137 139 140 137 125 117 116 113 112 122 132 129 124 122 125 126 123 119 122 124 116 111 111 107 102 93 85 86 91 93 98 106 115 123 132 128 120 122 118 113 106 99 97 96 93 85 76 61 48 56 17 136 131 146 151 140 135 138 139 134 132 127 123 121 117 118 123 119 112 112 108 104
156 156 143 118 99 111 121 124 130 127 125 126 132 136 137 137 131 118 112 113 111 113 119 120 115 120 129 129 128 127 121 115 112 108 106 106 104 100 99 96 94 96 99 100 102 108 121 132 131 126 124 121 119 113 106 101 95 87 67 38 358 337 315 287 269 182 175 168 149 139 141 140 132 131 132 134 131 121 115 115 112 108 113 106 99
153 148 135 111 100 119 135 132 129 126 125 126 132 133 128 126 123 117 113 112 112 114 115 108 100 112 128 131 135 135 123 112 105 103 103 103 102 110 114 112 109 105 105 106 107 113 119 122 120 118 119 122 124 118 110 101 92 75 46 9 342 328 304 279 268 224 185 180 165 146 143 147 139 140 148 146 138 125 115 116 117 112 111 105 100
146 137 124 109 106 128 140 133 131 127 131 131 138 135 124 119 117 117 115 111 109 107 109 111 105 112 125 131 137 135 120 110 108 104 102 100 94 103 113 112 106 102 103 108 114 119 126 123 112 113 118 126 126 118 109 94 81 56 31 8 348 308 268 262 267 236 188 189 186 159 147 156 153 155 159 151 142 130 122 121 121 119 112 105 110
144 135 122 109 108 126 131 125 128 129 133 130 135 134 128 133 121 114 115 112 108 103 108 118 118 120 126 129 129 125 115 108 110 105 100 99 94 98 104 98 88 95 99 102 108 110 118 121 118 119 123 128 123 116 104 88 75 50 29 15 19 11 243 243 258 249 206 201 200 186 168 171 167 167 168 157 149 135 127 127 125 125 116 111 119
149 138 127 114 105 118 121 114 123 130 132 127 129 133 136 141 131 118 118 114 110 104 107 118 124 126 128 126 121 118 115 112 110 103 100 100 99 99 97 85 75 84 90 93 97 98 103 109 116 120 122 124 119 113 101 88 73 52 40 24 28 37 233 233 247 251 228 219 217 221 206 186 176 177 179 167 160 149 137 134 132 130 122 119 121
150 139 133 122 109 114 121 123 130 129 129 131 134 139 141 141 139 131 124 119 114 108 106 112 120 125 126 126 124 124 124 122 118 113 113 109 103 99 91 79 68 70 78 84 87 90 95 97 106 115 121 125 123 119 108 93 69 58 52 34 31 37 43 236 247 252 244 236 235 239 229 193 177 186 192 179 174 162 147 140 139 138 128 126 130
141 140 137 127 119 116 120 132 143 132 127 131 137 145 144 149 157 144 130 126 120 115 111 108 109 110 114 118 120 123 128 128 129 130 131 126 116 109 100 85 72 66 69 79 84 88 92 93 97 105 118 124 126 122 114 96 58 61 56 44 42 42 47 45 254 255 250 244 249 252 239 206 180 191 204 192 181 172 165 153 145 146 140 137 144
149 152 145 133 129 121 123 133 145 142 133 129 133 142 152 166 168 150 135 132 127 124 116 105 101 101 101 105 108 108 113 117 119 126 128 123 115 115 114 101 86 75 71 75 80 84 88 90 92 95 105 115 122 118 115 92 52 54 47 46 44 39 40 41 315 260 256 249 254 257 247 222 192 198 212 201 183 177 171 165 155 159 162 153 155
170 161 151 141 133 127 127 134 141 142 139 137 137 144 163 174 166 150 135 129 128 122 110 104 104 106 103 101 104 101 101 103 102 101 97 87 77 78 85 94 89 76 71 71 77 79 79 81 82 85 87 93 104 107 114 97 61 45 26 25 29 25 22 23 10 283 257 253 256 260 258 234 210 210 218 203 185 179 168 173 166 162 172 164 166
166 168 161 151 131 131 133 135 142 141 140 140 138 139 147 152 146 136 123 118 114 100 94 98 101 100 100 99 99 96 90 90 89 89 86 79 74 71 70 76 75 48 35 41 64 67 64 69 72 75 71 70 74 81 114 108 67 44 27 10 13 17 14 11 6 336 269 254 259 264 264 246 230 229 224 204 193 186 172 175 175 165 171 173 176
122 135 150 155 144 140 141 138 140 139 136 130 126 124 121 123 125 117 107 100 87 87 93 99 97 85 86 82 83 89 87 83 80 85 89 83 77 72 68 68 67 53 20 357 349 346 343 354 20 44 50 49 43 40 87 126 58 32 20 10 8 14 15 8 1 351 313 260 258 265 265 253 245 254 232 209 204 197 186 186 194 189 186 192 194
132 123 126 143 144 139 139 138 131 123 118 111 105 99 100 110 116 111 109 95 70 71 86 97 97 81 73 65 71 87 94 89 76 76 88 89 82 78 71 64 61 55 40 11 346 328 321 321 322 329 345 8 18 23 22 265 336 5 6 6 6 10 12 5 359 357 348 295 260 263 261 256 252 259 239 213 211 208 206 208 209 208 208 213 213
154 154 140 139 140 131 117 110 98 91 91 90 82 76 84 93 98 97 99 93 74 61 61 72 79 72 61 51 64 79 83 79 62 50 59 64 64 68 68 62 58 51 44 33 13 351 333 321 313 313 318 337 8 17 12 339 314 334 351 356 357 359 1 355 353 356 355 338 290 259 256 258 254 253 240 221 217 214 214 217 215 217 219 221 225
166 166 155 148 144 122 100 82 73 77 81 77 69 65 70 68 69 73 72 72 64 54 49 50 54 47 36 42 57 62 61 57 45 35 41 44 45 48 51 54 54 46 45 48 41 28 14 350 327 320 322 330 347 352 356 353 325 330 339 343 344 346 344 338 336 343 347 337 313 266 254 257 256 251 236 227 222 215 213 218 219 223 224 228 235
162 160 154 146 131 111 101 85 77 80 79 70 61 54 57 53 44 49 49 45 45 45 44 41 42 38 41 57 58 54 52 47 38 35 39 38 35 35 38 45 49 44 40 44 43 34 28 23 16 7 355 349 349 343 337 328 323 329 332 333 332 335 334 327 321 321 330 329 312 280 265 256 257 254 235 229 224 218 216 219 226 234 230 232 237
149 148 145 139 126 113 101 88 82 73 64 49 39 40 46 50 42 43 45 45 48 49 52 52 53 49 56 73 67 60 56 52 52 50 46 41 33 29 33 41 48 43 36 38 41 39 34 34 41 38 13 357 349 340 325 317 319 325 334 337 327 324 325 323 320 313 318 325 314 284 271 262 258 256 240 229 224 222 221 221 230 237 236 235 235
144 144 149 143 134 125 108 95 80 49 39 27 27 32 39 50 52 54 58 57 56 57 66 73 68 55 56 81 76 65 63 64 70 66 58 49 36 29 30 38 48 45 38 39 41 44 46 44 43 35 15 349 334 320 301 306 314 322 335 340 323 314 312 318 322 313 313 320 319 298 276 270 265 261 249 233 226 224 225 225 232 236 237 241 240
143 148 159 154 147 140 121 98 63 41 31 29 30 34 43 51 54 58 61 61 59 64 74 76 70 55 55 79 74 64 67 68 69 67 60 52 42 32 26 33 48 50 44 42 45 51 56 57 49 41 35 8 345 321 291 302 316 326 336 339 330 317 307 310 314 306 307 314 317 308 285 276 272 269 260 252 245 234 231 231 237 239 237 245 252
148 155 166 163 158 156 129 60 46 43 37 38 39 42 48 49 56 62 62 66 68 72 74 72 69 60 61 75 71 67 68 63 60 58 53 49 43 34 24 22 28 38 45 48 55 68 73 68 62 60 58 46 27 353 323 330 337 339 335 335 336 329 315 306 302 295 299 306 310 310 296 281 278 279 277 282 274 259 254 249 248 250 249 255 261
147 153 166 174 167 162 129 53 53 52 50 53 54 56 59 60 68 70 62 69 79 77 73 72 72 66 69 77 73 67 62 56 51 44 38 33 30 25 21 16 5 3 17 28 56 85 91 82 79 75 66 57 47 31 6 351 345 341 332 330 330 330 327 315 306 300 300 305 309 313 309 292 285 287 284 286 283 265 261 263 261 259 260 260 260
139 143 154 172 154 131 85 72 71 66 68 70 66 64 67 71 75 71 66 72 79 72 65 72 82 80 78 76 68 58 49 42 34 25 18 11 6 4 6 8 3 356 350 338 336 84 98 99 101 89 69 53 41 34 27 18 5 356 345 339 333 327 326 323 319 315 314 316 316 317 317 303 286 282 283 286 291 274 255 259 263 260 261 261 263
130 127 136 144 110 97 97 93 83 80 82 76 69 68 70 71 66 62 65 71 72 68 72 81 90 91 84 75 62 48 35 23 15 9 4 360 354 349 349 356 1 360 349 324 298 299 69 89 103 89 60 40 28 25 23 24 21 11 5 359 349 337 330 324 320 325 331 333 327 321 320 309 294 289 294 297 302 290 259 254 259 261 261 262 266
125 115 128 133 108 104 113 106 95 92 86 75 71 71 69 63 57 57 63 73 81 82 85 85 85 84 77 68 57 43 32 20 12 5 0 357 351 347 348 353 2 8 4 338 287 279 311 1 22 28 30 22 12 8 3 358 352 349 356 3 5 2 352 338 332 339 336 329 331 333 333 325 312 304 302 300 302 300 285 271 268 271 272 273 273
119 119 129 132 121 117 118 113 106 98 85 74 70 68 63 58 57 60 65 74 82 83 82 77 71 68 61 53 48 42 37 29 23 16 10 7 2 1 5 7 14 21 20 14 3 317 306 319 332 353 19 18 3 349 336 326 323 328 345 0 1 0 354 346 350 346 314 315 338 353 359 350 337 325 316 310 306 304 300 292 285 284 285 288 289
122 124 129 128 125 121 118 117 112 102 88 75 66 63 61 61 62 65 70 74 77 78 73 64 56 51 43 39 38 35 34 32 31 25 19 19 18 18 15 14 19 25 30 29 29 32 22 10 1 22 35 30 7 343 323 309 313 340 354 346 323 321 322 319 317 310 298 319 4 20 23 9 355 342 326 328 325 317 313 309 307 305 303 304 304
125 126 128 127 125 121 118 118 114 104 90 79 66 64 64 67 69 72 74 73 71 68 62 54 47 42 37 36 34 30 31 32 32 27 20 20 22 19 13 8 9 16 26 27 31 41 48 42 31 29 27 29 14 349 331 326 350 0 345 317 303 301 298 293 284 269 266 275 47 58 47 30 7 330 310 343 351 331 311 303 305 306 303 302 301
122 122 124 121 118 116 116 115 115 112 100 91 73 66 70 72 74 76 73 67 61 57 54 49 45 44 41 34 29 26 28 28 28 26 20 16 15 14 10 5 360 355 358 1 9 27 40 26 8 1 358 1 358 345 335 341 3 9 346 320 310 301 291 286 278 258 244 240 108 89 75 72 109 170 176 136 141 190 230 254 272 282 285 286 290
116 115 114 111 113 113 113 110 112 122 121 117 92 69 73 73 73 75 69 62 58 55 51 45 44 42 35 28 24 25 26 24 23 21 18 13 12 14 13 10 7 357 345 335 335 337 332 328 324 324 328 327 327 327 328 342 25 40 21 358 344 325 305 271 214 188 155 139 131 126 124 125 133 150 158 162 176 191 212 243 272 289 304 315 319
112 109 108 108 113 112 111 109 110 120 131 133 119 83 73 67 71 78 70 63 62 58 50 43 40 35 29 26 24 26 26 23 23 20 16 13 15 20 20 19 18 15 4 342 327 316 309 307 303 302 303 304 308 313 317 343 68 79 77 77 72 76 81 93 115 121 120 121 125 126 126 127 133 142 147 150 157 151 19 359 341 340 1 16 15
116 114 115 115 116 111 103 97 91 95 114 127 133 128 93 61 62 78 73 64 64 58 48 41 33 28 25 23 23 24 23 23 24 23 20 17 16 17 17 18 18 18 16 10 2 350 336 320 308 301 297 298 298 300 309 346 96 95 90 88 84 83 84 87 93 98 104 109 114 121 125 126 125 120 109 99 85 69 54 41 34 29 32 35 34
134 127 124 122 118 106 92 81 73 73 85 95 111 126 107 56 59 89 94 79 71 60 48 38 27 23 20 17 17 18 16 17 19 19 18 16 15 12 11 12 11 12 13 13 10 4 0 349 333 319 313 314 311 312 318 321 112 104 90 81 79 78 78 80 82 83 88 95 101 107 110 110 103 93 87 81 71 64 55 48 45 45 47 48 46
155 133 126 125 119 103 88 86 78 70 69 64 60 51 35 16 346 106 127 113 84 67 55 44 31 21 17 14 14 15 15 17 18 18 18 15 13 10 8 7 6 6 7 6 1 356 359 360 356 348 339 333 330 329 329 322 113 124 112 85 72 71 72 72 71 70 71 74 79 84 84 82 79 77 78 75 66 59 55 56 58 60 60 57 52
186 148 139 139 133 111 93 99 87 64 54 45 35 31 28 16 328 250 171 151 100 73 61 49 40 27 22 20 18 17 18 21 22 20 19 17 14 11 9 7 3 2 2 3 3 359 356 358 358 354 343 337 334 326 325 325 322 138 137 121 60 67 62 57 57 58 60 63 66 69 68 68 68 70 71 68 66 65 65 68 69 66 63 61 60
205 190 177 175 166 134 110 116 97 50 38 33 30 33 32 28 101 165 165 151 107 81 59 41 38 29 28 28 26 22 18 19 20 18 17 15 13 11 10 9 6 2 360 0 3 3 1 357 353 346 338 333 330 319 317 323 317 256 149 112 88 112 48 29 46 51 56 60 60 64 66 67 68 68 67 67 67 67 67 68 65 62 63 62 62
210 209 200 199 195 157 127 133 132 56 27 21 23 22 5 351 135 148 148 133 114 99 75 59 54 36 31 29 24 20 13 12 13 12 12 10 9 9 7 7 6 3 2 1 1 1 1 0 358 353 345 335 328 320 315 323 330 304 228 165 109 93 192 189 78 52 55 60 61 66 69 72 73 72 71 70 69 67 64 63 61 64 65 58 55
211 212 212 215 209 182 164 174 171 156 322 334 340 334 324 301 213 165 149 134 132 132 122 115 89 54 53 41 21 9 5 5 5 5 5 4 5 7 7 6 5 4 4 4 3 4 3 3 3 0 355 345 333 327 319 316 329 345 324 267 252 248 184 164 132 62 68 73 74 72 72 75 75 73 70 69 68 68 67 65 66 71 72 68 70
211 214 217 223 219 200 193 198 197 215 257 297 303 283 272 263 245 202 166 141 137 144 134 126 112 97 103 85 31 6 1 1 2 1 0 1 2 4 6 7 9 9 10 10 10 11 10 7 4 1 359 354 344 337 332 324 321 345 352 344 330 240 185 166 147 153 117 86 90 89 86 82 78 74 71 70 69 67 66 66 67 74 80 80 80
210 218 224 230 230 213 199 199 206 226 244 271 281 262 251 246 238 232 239 269 328 131 138 131 129 132 133 113 51 11 3 4 5 4 0 1 2 3 6 9 13 16 16 17 15 14 13 10 7 3 1 357 354 351 346 340 331 334 352 12 20 201 197 195 177 161 143 128 117 100 94 89 83 79 76 73 70 68 66 64 65 69 75 78 78
209 220 228 233 234 225 210 207 213 225 232 250 260 248 245 247 238 238 247 242 236 172 171 175 169 167 172 128 9 357 2 3 3 1 358 358 2 7 9 10 15 20 23 24 22 20 17 15 11 8 5 359 357 356 356 358 350 344 353 12 44 75 194 244 181 141 114 138 143 119 106 93 83 80 81 80 73 68 66 62 63 67 71 76 77
212 221 230 232 230 226 220 214 216 220 221 235 245 234 234 240 232 223 217 206 212 235 229 217 205 204 213 231 298 316 343 350 349 349 351 351 355 5 8 7 9 13 17 21 23 23 20 18 15 13 12 5 2 360 359 8 6 3 7 6 40 67 55 287 187 86 75 104 132 137 131 108 90 80 81 84 80 70 64 60 60 64 68 74 75
216 223 231 232 227 225 223 219 219 217 215 225 229 226 230 233 223 210 209 218 237 243 232 223 220 220 222 231 248 259 295 329 333 336 344 346 348 359 1 357 357 355 359 6 11 14 11 11 10 10 14 11 8 1 356 6 14 21 26 24 44 69 101 181 201 163 131 141 142 136 122 111 107 97 85 83 85 77 64 59 58 61 65 68 70
Height
805 805 805 805 805 805 805 805 805 805 806 807 808 809 810 809 808 808 808 808 808 809 809 809 810 810 811 812 813 813 813 813 814 814 815 815 816 816 816 817 817 817 818 818 818 819 819 819 819 819 819 819 819 819 820 820 820 821 821 822 822 823 823 824 824 825 825 825 825 825 826 826 827 827 828 828 828 828 828 828 828 828 829 829 829
805 805 805 805 805 805 805 805 805 805 806 807 808 808 809 810 810 809 809 809 809 810 810 810 810 811 812 813 814 814 815 815 815 815 816 817 817 817 817 818 818 818 819 819 819 819 820 820 821 821 821 820 820 820 820 821 821 822 822 823 823 824 824 825 825 826 826 826 826 827 827 828 828 828 829 829 829 829 829 829 829 829 830 830 830
805 806 805 805 805 805 804 804 804 805 805 806 806 806 807 809 810 810 810 810 810 811 811 811 811 812 813 814 814 815 816 815 815 816 816 817 818 818 818 819 819 820 820 820 820 821 821 821 822 822 822 822 821 821 821 822 822 823 823 824 825 825 826 826 827 827 827 827 827 828 828 829 829 830 830 830 830 830 830 830 830 830 831 831 830
806 805 805 805 805 805 804 804 804 805 805 805 806 806 808 810 811 811 811 811 811 811 812 812 812 812 813 814 815 816 817 816 815 816 817 818 818 819 819 820 820 820 821 821 821 822 822 822 823 823 823 823 823 822 822 823 823 824 825 826 826 827 827 827 828 828 828 829 829 829 829 830 830 830 831 831 831 831 831 832 832 831 831 831 831
805 805 805 805 804 804 804 804 804 804 805 806 807 807 809 810 811 812 811 811 811 811 812 813 813 813 814 815 816 817 817 817 816 816 817 818 819 819 820 821 821 821 821 822 822 823 823 824 824 824 824 824 824 823 824 824 825 826 826 827 828 828 828 829 829 829 830 830 830 830 830 830 831 831 832 832 832 832 833 833 833 832 832 832 832
805 805 804 804 804 804 803 803 804 804 806 807 808 809 809 810 811 811 811 812 812 812 812 813 814 814 815 816 817 818 818 818 817 818 818 819 820 821 821 822 822 822 822 823 823 824 824 825 825 825 825 825 825 825 825 826 827 827 828 828 829 829 829 830 830 831 831 831 831 831 831 831 831 832 832 832 833 833 833 833 833 833 833 833 833
805 805 804 804 803 803 803 803 803 805 807 808 809 809 809 810 810 811 811 812 812 813 813 813 814 815 816 817 818 819 819 819 819 819 820 820 821 822 822 823 823 823 823 824 824 825 826 826 826 826 826 826 827 827 826 827 828 828 829 830 830 831 831 831 831 832 832 832 832 832 832 832 832 833 833 833 833 834 834 834 834 834 834 834 834
805 804 804 804 803 804 804 804 804 805 807 808 809 809 810 811 811 811 811 812 812 813 814 813 813 815 816 817 819 819 819 820 820 820 821 821 822 823 824 824 824 824 824 825 826 826 827 827 827 827 827 827 828 828 828 828 829 829 830 831 831 832 832 832 832 832 833 833 833 833 833 833 833 834 834 834 834 834 834 835 835 835 835 835 835
804 804 804 804 805 806 807 807 807 807 808 808 809 810 810 811 811 811 812 813 813 814 815 814 814 814 816 818 819 820 820 820 820 821 822 822 823 824 824 825 825 825 826 826 827 827 828 828 828 828 828 828 829 830 830 830 830 831 831 832 832 833 833 833 833 833 834 834 834 834 834 834 834 835 835 835 835 835 835 835 835 835 835 836 836
804 804 804 805 807 808 809 809 810 811 810 810 810 811 811 811 812 812 813 813 814 815 815 816 815 814 817 819 820 821 821 821 821 822 823 824 824 825 826 826 826 826 827 828 828 828 828 829 829 829 829 829 830 831 831 831 831 832 832 833 833 833 834 834 834 834 835 835 835 835 835 835 835 836 836 836 836 836 836 836 836 836 836 836 837
804 804 805 806 809 810 810 810 811 812 812 811 811 812 812 812 813 813 814 814 814 815 816 817 815 815 818 820 821 822 822 822 822 823 824 825 825 826 827 827 827 827 828 829 829 830 829 829 830 830 830 831 832 832 832 832 833 833 833 833 833 834 834 834 835 835 835 835 836 836 836 836 836 837 837 838 837 837 837 838 838 837 837 837 838
805 805 806 808 811 811 810 812 813 813 813 812 813 813 814 815 814 814 815 815 815 816 816 816 816 817 819 821 822 823 823 823 823 824 825 826 827 827 828 828 828 829 829 830 830 831 831 830 830 831 831 832 833 833 833 834 834 834 834 834 834 834 834 835 835 835 836 836 836 837 837 837 838 838 838 839 838 839 839 839 839 838 838 839 839
806 806 807 810 812 811 811 813 814 814 813 812 814 814 816 818 817 816 815 815 815 816 816 816 817 818 820 821 823 824 824 824 825 826 827 827 828 828 829 829 829 830 830 831 831 831 831 832 832 832 833 833 834 834 834 835 835 835 835 835 834 834 834 835 836 836 836 837 837 837 838 838 839 839 839 839 839 840 840 840 840 839 839 840 840
807 807 809 810 812 812 812 815 815 815 815 814 816 815 816 819 820 819 817 816 816 816 816 817 818 819 821 822 823 824 825 826 826 827 828 828 829 829 830 830 830 831 831 832 832 832 832 832 833 833 834 834 835 835 835 835 836 836 835 835 835 834 835 835 836 836 837 837 838 838 838 839 839 840 840 840 840 840 840 840 841 840 840 840 840
808 808 810 811 813 813 813 815 815 815 816 815 816 816 817 819 821 821 819 817 817 817 817 818 819 820 822 823 824 825 826 827 828 829 829 830 830 830 831 831 831 832 832 832 833 833 833 833 834 834 835 835 835 836 836 836 836 836 836 835 835 835 835 836 836 837 837 838 838 838 839 839 840 840 840 840 841 841 841 841 841 841 841 841 841
809 809 811 812 814 815 815 815 816 816 816 817 817 817 818 819 821 822 820 818 818 818 818 819 820 821 823 824 825 826 827 828 829 830 830 831 831 831 832 832 832 832 833 833 833 834 834 834 835 835 835 836 836 837 837 837 837 837 837 836 836 835 836 836 837 837 838 838 838 839 839 839 840 840 840 841 841 842 842 842 842 842 841 841 841
811 811 812 813 815 816 817 816 816 816 817 818 817 818 818 819 822 822 820 819 819 819 819 820 822 823 824 825 826 827 828 829 830 831 831 832 832 832 832 833 833 833 833 833 834 834 834 835 835 836 836 836 837 837 837 837 837 838 838 837 837 837 837 837 838 838 838 838 838 839 839 839 840 840 841 841 842 842 843 843 843 842 842 841 841
812 812 812 814 815 817 818 818 817 817 818 818 818 818 819 821 822 821 820 819 819 820 821 822 824 825 826 827 827 828 829 830 831 831 832 832 833 833 833 833 833 833 834 834 834 835 835 835 835 836 836 837 837 837 838 838 838 838 838 838 838 838 838 838 838 838 838 839 839 839 839 839 840 840 841 841 842 842 843 843 843 843 842 841 841
813 813 813 814 816 817 818 820 820 820 820 819 819 820 822 823 822 821 820 819 819 820 822 824 826 825 827 828 828 829 830 831 832 832 833 833 833 833 834 834 834 834 834 834 835 835 835 835 836 836 836 837 837 838 838 838 838 839 839 839 839 839 839 839 838 838 839 838 838 839 839 839 840 840 841 841 842 842 843 843 842 842 842 842 842
814 814 815 815 816 818 818 820 821 822 823 822 822 822 824 824 822 821 820 820 820 822 824 826 827 826 827 829 829 829 830 832 832 833 833 834 834 834 834 834 834 835 835 835 835 835 836 836 836 836 836 837 837 838 838 839 839 839 839 839 839 839 839 839 839 838 838 838 838 839 839 839 840 840 841 841 842 842 842 842 842 842 842 842 842
816 815 816 816 817 818 819 820 821 822 822 822 822 822 822 822 822 821 821 821 822 824 826 827 827 827 828 829 830 830 831 832 833 833 834 834 834 834 834 835 835 835 835 835 835 836 836 836 836 837 837 837 837 837 838 838 839 839 839 840 840 840 839 839 839 838 838 838 838 838 839 839 840 840 840 841 842 842 842 842 842 842 842 842 842
817 817 817 817 818 818 819 820 821 821 822 821 821 821 821 822 822 822 822 823 823 825 826 827 828 828 829 829 830 831 832 833 833 834 834 834 834 835 835 835 835 835 835 835 836 836 836 836 836 837 837 837 837 837 838 838 839 839 840 840 840 840 839 839 839 839 838 838 838 838 839 839 840 840 840 841 842 842 842 842 842 842 842 842 842
817 818 818 818 819 819 820 821 822 822 822 822 822 822 822 823 823 823 823 824 824 825 826 828 829 829 830 831 831 832 832 833 834 834 834 835 835 835 835 835 835 835 836 836 836 836 836 836 836 837 837 837 837 837 838 838 839 839 840 840 840 840 839 839 839 839 838 838 838 838 839 839 840 840 840 841 842 842 842 842 842 842 842 842 842
818 819 819 819 820 820 821 822 823 823 823 823 823 824 824 824 824 825 825 825 826 826 827 829 830 831 832 832 833 833 833 834 834 834 835 835 835 835 835 835 835 836 836 836 836 836 836 836 837 837 837 837 837 837 838 838 839 839 839 839 839 839 839 839 839 839 838 838 838 838 838 839 839 840 840 841 841 841 842 842 842 842 842 841 841
819 820 820 821 821 821 822 823 824 824 824 824 825 825 825 826 826 826 827 827 828 828 829 830 831 831 832 833 833 833 834 834 834 835 835 835 835 835 835 835 835 836 836 836 836 836 837 837 837 837 837 837 837 837 838 838 838 839 839 839 839 839 839 839 839 839 838 838 838 838 838 839 839 840 840 841 841 841 841 842 842 842 841 841 841
820 821 821 822 822 822 823 824 824 825 825 825 826 827 827 828 828 828 829 829 829 830 830 831 831 832 832 833 833 834 834 834 835 835 835 835 835 836 835 836 836 836 836 836 837 836 837 837 837 837 837 837 837 837 838 838 838 838 838 838 838 838 838 838 838 838 838 838 837 838 838 838 839 839 840 840 841 841 841 841 841 841 841 840 840
821 822 822 823 823 823 824 825 825 826 826 827 827 828 829 829 829 830 830 830 830 831 832 832 832 832 832 833 834 834 835 835 835 835 835 835 836 836 836 836 836 836 836 836 837 837 837 837 837 837 837 837 837 837 837 838 838 838 838 838 838 838 838 837 837 837 837 837 837 837 838 838 839 839 839 840 840 840 840 840 840 840 840 840 840
822 823 824 824 825 825 825 826 826 827 827 828 829 829 830 830 831 831 831 831 832 832 832 832 833 833 833 833 834 835 835 836 836 836 835 835 836 836 836 836 836 836 836 836 836 836 836 836 837 837 836 836 836 836 836 837 837 837 837 837 838 837 837 837 836 836 836 837 837 837 837 838 838 838 839 840 840 840 840 840 840 840 839 840 840
823 824 825 825 826 826 826 827 827 828 828 829 830 831 831 831 832 832 832 832 832 833 833 833 833 834 834 834 835 835 835 836 836 836 836 836 836 836 836 836 836 836 836 836 836 836 836 836 836 836 836 836 836 836 836 836 836 836 836 836 836 836 836 835 836 836 836 836 836 836 837 837 837 838 840 841 841 841 841 840 840 840 840 840 840
825 825 826 826 827 827 828 828 829 829 829 830 831 832 832 832 833 832 833 833 833 834 834 834 834 834 835 835 836 836 836 836 836 837 837 837 837 837 836 836 836 836 836 836 835 835 835 835 835 836 836 835 835 835 835 835 835 835 835 835 835 835 835 834 835 835 835 835 836 836 836 837 838 839 840 840 840 840 840 840 840 840 839 839 839
825 825 826 827 827 828 829 829 830 830 830 831 832 832 833 833 834 833 833 833 834 834 835 835 835 835 835 836 836 836 837 837 837 837 837 837 837 837 837 836 836 836 836 835 835 835 835 835 835 835 835 835 834 834 834 834 834 834 834 834 834 834 834 834 834 834 834 835 835 835 836 837 837 838 838 838 838 838 839 839 839 839 838 838 837
826 826 827 827 828 829 830 830 831 831 831 832 832 833 834 834 834 834 833 834 834 835 836 836 836 836 836 837 837 837 837 837 837 837 837 837 837 836 836 836 836 836 835 835 835 835 835 834 834 834 834 834 834 833 833 833 833 833 833 833 833 833 833 833 833 834 834 834 834 835 835 836 836 836 837 837 837 837 837 837 837 837 837 837 837
826 827 827 828 829 829 830 831 832 832 832 832 833 833 834 835 835 834 834 834 835 836 836 837 837 837 837 837 838 838 838 838 838 837 837 836 836 836 836 836 835 835 835 835 835 835 834 834 834 834 833 833 833 833 833 833 833 833 832 832 832 832 832 832 832 832 833 833 833 833 834 834 835 835 835 835 836 836 836 836 836 836 836 836 836
827 827 828 828 829 830 831 832 832 833 833 833 833 834 835 835 835 835 836 836 837 837 837 838 838 838 838 838 838 838 838 838 837 837 837 836 836 836 835 835 835 835 835 835 835 835 834 834 834 833 833 833 833 833 833 833 833 832 832 832 832 831 831 831 831 831 831 831 831 832 832 833 833 834 834 834 835 835 835 835 835 835 835 835 835
828 828 829 829 829 831 831 832 833 833 833 834 834 835 835 836 836 837 837 838 838 838 838 839 839 839 839 839 838 838 838 838 838 837 837 837 836 836 836 835 835 835 835 834 834 834 834 834 834 833 833 834 834 834 834 833 833 833 832 832 831 830 830 830 829 829 829 829 830 830 831 831 831 832 833 833 833 833 833 833 834 834 834 833 833
829 829 830 830 830 831 832 833 833 834 834 835 835 836 836 836 837 838 838 838 838 839 839 839 839 839 839 839 839 839 838 838 838 837 837 837 837 836 836 836 835 835 835 835 835 834 834 834 834 834 834 834 834 834 833 833 833 833 832 831 830 830 829 829 828 828 828 828 828 829 829 830 830 831 832 832 832 832 832 832 832 832 832 832 831
829 829 830 830 831 831 832 833 833 834 835 835 836 836 837 837 838 838 839 839 839 839 839 839 839 839 839 839 839 839 838 838 838 838 838 837 837 837 836 836 836 836 836 835 835 835 834 834 834 834 834 834 834 834 833 833 833 833 832 831 830 829 829 828 828 828 827 827 828 828 828 828 829 829 830 830 831 830 830 830 830 830 830 830 829
829 829 829 830 830 831 832 833 833 834 835 836 837 837 838 838 839 839 839 839 839 839 839 839 839 839 839 839 839 839 838 838 838 838 838 838 837 837 837 836 836 836 836 836 835 835 835 834 834 834 833 833 833 833 833 833 833 833 832 831 830 829 828 828 827 827 827 827 827 828 827 827 828 828 829 829 829 829 829 829 829 829 828 828 828
828 828 829 829 830 831 832 833 834 834 835 836 837 837 838 838 839 839 840 839 839 840 840 840 840 840 840 840 839 839 839 839 838 838 838 838 837 837 837 837 836 836 836 836 835 835 835 834 834 834 833 833 833 833 833 833 833 833 832 831 830 830 829 828 828 828 828 827 828 828 827 827 827 827 828 828 829 829 828 828 828 828 828 827 827
827 827 828 829 830 831 832 833 834 835 836 837 838 839 839 839 839 840 840 840 840 840 840 840 840 840 840 840 840 840 839 839 839 839 838 838 838 837 837 837 837 837 836 836 836 835 835 835 834 834 834 833 833 833 833 833 833 833 832 832 831 831 830 829 829 829 829 829 829 829 828 828 827 827 828 828 829 829 828 828 828 828 828 827 827
826 827 828 829 830 831 832 834 835 836 837 838 838 839 840 840 840 840 841 841 841 841 841 841 841 841 841 840 840 840 840 839 839 839 838 838 837 837 837 837 837 837 837 836 836 836 835 835 835 834 834 834 833 833 833 833 833 833 833 833 832 832 831 831 830 830 830 830 830 830 830 829 828 828 829 829 829 829 828 829 829 829 828 828 828
826 828 829 830 830 831 833 834 836 837 838 838 839 840 840 840 840 841 841 841 842 842 842 842 841 842 842 841 841 841 840 840 839 839 839 838 838 837 837 836 836 836 836 836 836 836 835 835 835 834 834 834 833 833 833 833 832 833 833 833 833 833 833 832 832 832 832 832 832 832 832 831 830 830 830 830 829 830 829 830 830 830 829 829 829
826 828 829 830 830 831 833 835 836 837 838 838 839 840 840 841 841 841 842 842 842 842 842 842 842 842 842 843 842 842 842 841 841 841 840 840 839 839 838 837 837 836 836 836 836 835 835 835 835 834 834 834 833 833 832 832 832 833 833 834 834 834 834 834 833 834 834 834 834 833 833 832 831 831 830 830 831 831 831 831 831 831 830 830 829
827 827 828 829 830 832 833 834 836 836 838 839 839 840 840 841 841 841 842 842 843 843 843 843 843 843 843 843 843 843 843 843 842 842 841 841 840 840 840 839 838 838 837 837 836 836 835 835 835 834 834 834 834 833 833 832 832 832 833 834 835 835 836 836 836 836 836 835 835 835 834 834 833 833 832 832 832 832 832 832 832 832 831 831 830
827 827 828 829 830 832 833 834 836 836 838 838 839 840 840 841 841 842 842 843 843 843 843 843 843 843 844 844 844 844 844 843 843 842 842 842 841 841 841 840 840 839 838 838 837 837 836 836 835 835 834 834 834 834 833 833 832 832 832 834 835 836 837 837 836 837 837 837 837 836 836 835 835 834 834 834 834 834 834 833 833 833 832 832 831
827 828 829 830 830 832 834 835 836 836 838 838 839 840 840 841 841 842 842 843 843 843 843 843 843 844 844 844 845 845 844 844 844 843 843 843 842 842 841 841 840 839 839 839 838 838 837 836 836 835 835 834 834 833 833 833 833 833 832 832 833 834 835 835 836 838 838 838 838 838 837 837 837 836 836 836 836 835 835 834 834 834 833 833 832
827 828 829 830 831 832 834 835 836 836 837 838 839 840 840 841 841 841 842 843 843 843 843 843 843 844 844 845 845 845 845 845 845 844 844 843 843 842 842 841 840 840 839 839 839 838 838 837 837 836 835 835 834 834 833 833 833 833 833 833 833 832 832 833 835 837 838 839 839 839 839 838 838 838 838 838 838 837 837 836 835 835 835 834 834
827 828 829 830 831 832 834 834 835 836 837 838 839 840 840 841 841 842 842 842 843 843 843 843 843 844 844 845 845 845 845 845 845 845 844 844 844 843 842 842 841 841 840 840 839 839 839 838 838 837 836 835 835 834 834 833 833 833 833 833 833 832 832 832 832 833 835 839 839 839 840 840 839 840 840 840 840 840 839 838 837 837 836 836 835
828 829 829 830 831 833 834 834 835 836 837 838 839 840 841 841 842 842 842 843 843 843 843 843 843 844 844 845 845 845 845 845 845 845 845 844 844 844 843 843 842 842 841 841 840 840 840 839 838 838 837 836 835 835 834 834 834 833 833 833 833 833 833 833 833 833 834 836 839 839 840 840 841 842 842 842 842 842 841 841 839 839 838 837 837
827 829 829 830 832 833 834 834 835 836 837 838 839 840 841 841 842 842 842 843 843 843 843 843 844 844 845 845 845 845 845 845 845 845 845 845 844 844 844 843 843 843 842 842 841 841 840 840 839 839 838 838 837 836 835 835 834 834 833 833 833 834 834 834 834 835 836 836 837 839 839 840 842 844 845 843 843 843 843 843 842 841 840 839 839
827 828 829 830 832 833 834 834 835 836 837 838 839 840 841 841 842 842 842 843 843 843 843 843 844 844 845 845 845 846 845 845 845 845 845 845 844 844 844 844 843 843 843 842 842 841 841 841 840 840 839 838 838 837 836 836 835 835 834 834 833 834 834 834 833 835 836 836 836 838 839 839 841 845 846 845 844 844 844 844 843 843 842 841 840